Location: Newark
(48.0000°N, 67.0000°E)
Time: 12:11:26
(UTC+00:00)

N. Korean satellite - Pass Details

Date: 25 January 2020
Orbit: 456 x 505 km, 97.2° (Epoch: 29 February)

Event Time Altitude Azimuth Distance (km) Brightness Sun altitude
Rises 00:59:33 0° 19° (NNE) 2,536 10.4 -21.5°
Reaches altitude 10° 01:01:42 10° 27° (NNE) 1,661 9.5 -21.1°
Maximum altitude 01:05:04 39° 98° (E) 735 8.0 -20.5°
Drops below altitude 10° 01:08:28 10° 169° (S) 1,673 9.5 -20.0°
Sets 01:10:38 0° 177° (S) 2,558 10.4 -19.6°
